SCP
0 0 0 0 0 0 0 0 0 0 0 0 0 0 0 0 0 0 0 0 0 0 0 0 0 0 0 0 0 0 0 0 0 0 0 0 0 0 0 0 0 0 0 0
0 0 0 0 0 0 0 0 0 0 0 0 0 0 0 0 0 0 0 0 0 0 0 0 0 0 0 0 0 0 0 0 0 0 0 0 0 0 0 0 0 0 0 0
0 0 0 0 0 0 0 0 0 0 0 0 0 0 0 0 0 0 0 0 0 0 0 0 0 0 0 0 0 0 0 0 0 0 0 0 0 0 0 0 0 0 0 0
0 0 0 0 0 0 0 0 0 0 0 0 0 0 0 0 0 0 0 0 0 0 0 0 0 0 0 0 0 0 0 0 0 0 0 0 0 0 0 0 0 0 0 0
0 0 0 0 0 0 0 0 0 0 0 0 0 0 0 0 0 0 0 0 0 0 0 0 0 0 0 0 0 0 0 0 0 0 0 0 0 0 0 0 0 0 0 0
0 0 0 0 0 0 0 0 0 0 0 0 0 0 0 0 0 0 0 0 0 0 0 0 0 0 0 0 0 0 0 0 0 0 0 0 0 0 0 0 0 0 0 0
0 0 0 0 0 0 0 0 0 0 0 0 0 0 0 0 0 0 0 0 0 0 0 0 0 0 0 0 0 0 0 0 0 0 0 0 0 0 0 0 0 0 0 0
0 0 0 0 0 0 0 0 0 0 0 0 0 0 0 0 0 0 0 0 0 0 0 0 0 0 0 0 0 0 0 0 0 0 0 0 0 0 0 0 0 0 0 0
0 0 0 0 0 0 0 0 0 0 0 0 0 0 0 0 0 0 0 0 0 0 0 0 0 0 0 0 0 0 0 0 0 0 0 0 0 0 0 0 0 0 0 0
0 0 0 0 0 0 0 0 0 0 0 0 0 0 0 0 0 0 0 0 0 0 0 0 0 0 0 0 0 0 0 0 0 0 0 0 0 0 0 0 0 0 0 0
0 0 0 0 0 0 0 0 0 0 0 0 0 0 0 0 0 0 0 0 0 0 0 0 0 0 0 0 0 0 0 0 0 0 0 0 0 0 0 0 0 0 0 0
0 0 0 0 0 0 0 0 0 0 0 0 0 0 0 0 0 0 0 0 0 0 0 0 0 0 0 0 0 0 0 0 0 0 0 0 0 0 0 0 0 0 0 0
0 0 0 0 0 0 0 0 0 0 0 0 0 0 0 0 0 0 0 0 0 0 0 0 0 0 0 0 0 0 0 0 0 0 0 0 0 0 0 0 0 0 0 0
0 0 0 0 0 0 0 0 0 0 0 0 0 0 0 0 0 0 0 0 0 0 0 0 0 0 0 0 0 0 0 0 0 0 0 0 0 0 0 0 0 0 0 0
0 0 0 0 0 0 0 0 0 0 0 0 0 0 0 0 0 0 0 0 0 0 0 0 0 0 0 0 0 0 0 0 0 0 0 0 0 0 0 0 0 0 0 0
0 0 0 0 0 0 0 0 0 0 0 0 0 0 0 0 0 0 0 0 0 0 0 0 0 0 0 0 0 0 0 0 0 0 0 0 0 0 0 0 0 0 0 0
0 0 0 0 0 0 0 0 0 0 0 0 0 0 0 0 0 0 0 0 0 0 0 0 0 0 0 0 0 0 0 0 0 0 0 0 0 0 0 0 0 0 0 0
0 0 0 0 0 0 0 0 0 0 0 0 0 0 0 0 0 0 0 0 0 0 0 0 0 0 0 0 0 0 0 0 0 0 0 0 0 0 0 0 0 0 0 0
0 0 0 0 0 0 0 0 0 0 0 0 0 0 0 0 0 0 0 0 0 0 0 0 0 0 0 0 0 0 0 0 0 0 0 0 0 0 0 0 0 0 0 0
0 0 0 0 0 0 0 0 0 0 0 0 0 0 0 0 0 0 0 0 0 0 0 0 0 0 0 0 0 0 0 0 0 0 0 0 0 0 0 0 0 0 0 0
0 0 0 0 0 0 0 0 0 0 0 0 0 0 0 0 0 0 0 0 0 0 0 0 0 0 0 0 0 0 0 0 0 0 0 0 0 0 0 0 0 0 0 0
0 0 0 0 0 0 0 0 0 0 0 0 0 0 0 0 0 0 0 0 0 0 0 0 0 0 0 0 0 0 0 0 0 0 0 0 0 0 0 0 0 0 0 0
0 0 0 0 0 0 0 0 0 0 0 0 0 0 0 0 0 0 0 0 0 0 0 0 0 0 0 0 0 0 0 0 0 0 0 0 0 0 0 0 0 0 0 0
0 0 0 0 0 0 0 0 0 0 0 0 0 0 0 0 0 0 0 0 0 0 0 0 0 0 0 0 0 0 0 0 0 0 0 0 0 0 0 0 0 0 0 0
0 0 0 0 0 0 0 0 0 0 0 0 0 0 0 0 0 0 0 0 0 0 0 0 0 0 0 0 0 0 0 0 0 0 0 0 0 0 0 0 0 0 0 0
0 0 0 0 0 0 0 0 0 0 0 0 0 0 0 0 0 0 0 0 0 0 0 0 0 0 0 0 0 0 0 0 0 0 0 0 0 0 0 0 0 0 0 0
Wind_Speed
2 2 4 7 7 4 1 3 6 7 4 3 5 8 10 6 1 2 3 5 7 7 7 8 8 7 6 4 2 3 5 5 5 4 4 4 5 4 4 6 7 9 9 10
3 5 8 4 3 3 2 3 6 6 2 2 5 7 5 2 1 1 2 4 6 7 10 11 10 9 7 5 2 1 3 5 5 4 4 3 3 3 4 5 7 9 10 11
7 6 1 4 3 4 4 5 5 4 5 2 4 5 2 2 2 2 3 3 5 6 7 8 9 8 7 7 4 2 1 3 4 4 3 2 1 1 1 4 6 8 9 10
6 5 2 4 5 6 5 5 4 2 2 4 3 3 4 1 1 1 1 3 4 5 5 6 7 8 8 6 4 3 2 1 2 4 4 5 4 5 6 4 4 6 8 10
5 3 4 5 6 8 6 1 2 1 2 2 1 2 8 2 4 5 3 1 2 3 4 5 6 5 6 6 5 5 4 3 2 3 4 5 6 6 4 3 5 6 6 9
6 3 4 5 1 4 4 5 4 4 4 2 2 3 7 5 7 5 4 3 2 1 3 4 4 5 6 6 6 5 5 4 2 1 2 4 7 7 6 6 6 5 4 5
3 3 2 3 4 2 3 4 4 4 3 4 1 3 9 5 4 6 8 7 4 2 2 3 4 6 6 7 6 6 6 5 3 2 2 4 5 6 7 7 6 6 5 5
2 4 4 4 5 6 4 6 5 3 3 5 3 6 8 4 4 4 6 6 4 2 1 1 2 4 4 5 5 5 5 4 4 3 3 3 4 3 4 6 5 6 5 6
6 5 0 1 1 8 5 3 4 6 2 3 6 7 9 0 3 4 5 5 4 2 1 1 2 3 3 4 4 4 5 4 5 4 4 4 4 3 5 6 5 5 6 6
8 3 1 1 3 3 4 8 5 4 2 4 6 6 5 3 3 3 4 4 3 2 1 1 2 2 2 3 3 4 4 4 4 5 4 4 5 4 5 5 6 6 7 6
5 5 1 1 6 7 4 4 5 4 4 4 4 8 6 6 6 6 5 4 2 2 1 0 1 2 2 3 4 4 4 4 5 5 5 5 6 5 5 5 6 6 7 7
5 6 3 5 1 3 5 7 8 5 5 5 4 10 3 3 4 5 4 2 1 2 1 1 1 2 3 4 5 5 5 5 5 5 5 6 6 6 6 7 7 7 7 7
7 7 2 3 3 0 2 4 5 5 5 6 6 9 2 2 2 2 3 2 2 2 2 1 1 2 3 4 5 5 5 6 6 5 6 7 7 7 7 8 8 8 8 8
6 5 7 9 7 6 5 5 6 7 5 7 10 9 4 3 3 2 2 3 2 1 1 1 2 3 4 5 5 6 6 6 6 6 6 7 8 8 8 8 8 9 9 9
6 5 5 5 2 4 5 7 8 9 10 11 10 11 10 7 7 5 4 4 3 1 1 1 3 4 5 5 6 6 6 6 6 6 7 8 8 8 8 9 9 9 9 10
4 4 3 2 0 2 5 9 10 11 9 10 9 11 4 2 4 4 5 5 3 1 1 3 4 5 6 6 6 6 7 7 6 7 8 8 8 9 9 10 10 10 10 10
5 7 5 3 1 3 9 12 12 8 8 9 11 8 4 4 5 6 6 5 3 2 3 4 5 5 6 6 6 6 7 7 7 8 9 9 9 10 10 11 11 11 11 11
8 7 4 3 2 9 9 2 5 6 6 7 4 3 5 5 3 2 4 5 3 2 3 4 5 5 5 5 6 6 7 7 7 8 9 9 9 11 11 11 12 12 11 11
5 8 5 4 5 9 9 4 6 7 6 5 7 5 4 3 2 2 3 3 2 2 3 4 5 5 5 6 6 7 7 8 8 9 9 9 10 11 12 12 13 12 12 12
3 4 6 5 5 9 8 2 4 4 4 4 7 7 5 4 2 3 1 1 2 2 3 3 4 4 5 6 6 7 8 9 10 10 10 10 10 11 13 14 14 12 11 13
5 3 5 6 7 11 7 3 5 4 7 5 6 6 6 5 5 3 1 1 2 3 3 4 5 5 6 7 6 8 9 10 11 10 11 11 10 11 13 13 11 12 13 13
10 8 8 6 6 12 3 7 8 6 4 6 5 5 5 4 2 1 1 2 3 4 4 4 5 7 7 7 7 9 11 11 10 10 11 11 11 10 11 12 13 12 12 14
8 9 8 10 8 2 1 4 3 5 6 5 5 4 4 3 1 1 2 3 4 4 5 5 6 8 8 7 7 10 12 11 11 11 11 12 12 10 9 11 13 12 10 10
4 2 4 4 5 2 1 3 3 4 5 4 3 3 3 2 2 2 3 3 4 5 5 5 6 8 10 9 8 9 11 11 11 12 12 11 11 12 10 8 9 10 10 11
4 6 4 4 2 2 2 3 4 3 4 4 3 2 2 2 2 3 3 5 5 6 6 6 7 9 11 11 10 10 10 10 11 11 11 11 10 11 12 10 9 12 10 13
5 7 8 7 7 7 6 5 5 4 3 3 2 1 1 2 3 4 5 5 6 6 7 7 9 10 11 11 11 11 9 8 10 11 10 9 9 10 10 11 12 16 19 25
Wind_Direction
54 78 225 221 205 204 202 238 267 266 282 298 273 284 299 317 41 83 41 20 14 10 355 14 25 31 42 56 123 177 181 176 160 160 176 194 220 216 219 219 216 210 211 208
34 259 239 205 179 192 208 256 271 288 300 288 301 297 302 357 53 89 69 37 24 14 12 15 23 30 33 31 31 161 185 180 179 178 166 178 188 211 217 220 223 218 217 215
203 237 163 152 174 189 221 215 239 269 327 11 336 337 355 11 35 55 46 40 36 32 21 14 17 21 25 24 10 12 192 185 185 168 140 117 95 340 258 231 231 227 223 222
231 259 216 208 216 181 251 232 209 233 337 308 18 306 275 276 305 292 31 35 37 29 29 28 24 20 20 12 14 29 45 116 162 162 170 188 206 230 235 227 232 232 222 226
242 224 195 211 224 180 212 108 147 179 174 310 334 209 281 254 226 230 218 153 57 44 44 40 31 25 24 19 27 32 48 60 105 168 192 204 231 244 258 255 251 246 234 229
243 243 215 212 148 159 134 86 69 61 80 312 223 175 275 226 213 208 204 196 169 92 56 43 34 33 27 23 27 30 41 41 42 153 208 221 241 258 272 272 267 262 250 240
271 243 225 150 120 82 113 89 14 352 8 264 244 205 252 250 233 205 191 189 188 163 82 39 35 30 21 17 17 20 29 23 12 1 277 249 251 256 260 268 269 271 268 257
240 272 220 188 176 171 172 143 159 223 254 289 300 238 254 279 288 226 175 163 169 168 135 52 42 37 18 12 13 13 14 5 358 353 325 294 269 258 261 264 263 263 262 263
190 246 33 148 152 137 138 165 155 131 165 273 284 291 303 31 49 101 133 148 176 187 170 67 38 32 14 4 359 356 356 350 346 341 332 325 313 289 280 281 271 267 265 271
163 200 187 129 94 32 144 141 109 126 175 271 292 278 255 242 193 169 171 184 201 193 115 58 36 13 354 347 340 345 347 333 325 329 325 319 315 305 295 293 290 284 281 278
155 165 194 166 194 185 130 136 125 124 158 174 267 273 228 214 199 192 201 207 203 186 150 67 8 352 345 344 343 339 334 327 322 322 320 320 313 309 304 294 289 286 284 283
160 132 208 242 228 179 173 174 151 161 210 184 198 267 280 216 196 179 189 189 152 139 125 102 11 351 348 341 333 330 325 320 312 313 314 310 306 307 304 297 292 289 285 281
143 128 106 342 345 110 198 185 174 138 133 167 188 258 310 91 114 145 158 150 131 113 90 54 11 347 334 326 322 320 318 312 310 312 312 310 308 306 301 296 293 291 287 285
123 138 172 199 215 183 197 195 172 151 176 209 220 241 246 231 211 199 178 162 145 121 95 47 346 325 317 315 314 314 312 310 310 312 310 306 302 298 294 293 292 290 287 286
126 181 217 233 209 177 208 208 193 199 203 213 229 229 237 226 214 200 177 158 137 115 50 348 320 310 312 315 313 311 307 308 310 311 307 300 297 296 294 293 292 290 286 283
128 166 171 251 141 210 251 242 226 227 225 233 252 259 238 175 143 154 167 161 154 185 296 309 309 308 306 305 303 306 304 305 307 304 299 297 298 298 295 294 293 291 288 284
148 137 146 238 298 357 266 233 218 217 210 199 228 238 154 144 160 177 182 175 180 233 283 294 296 292 294 294 294 297 296 301 304 300 298 298 297 297 295 296 297 294 291 288
147 144 150 161 134 237 243 194 183 198 228 209 202 168 158 160 173 190 177 173 199 258 282 288 289 291 294 292 294 294 297 300 299 297 296 296 296 295 297 297 295 294 290 290
149 141 139 155 216 269 285 231 180 187 245 200 171 158 138 110 65 331 198 174 197 256 271 273 277 281 290 295 298 303 303 301 299 297 295 295 295 297 299 299 297 296 296 295
76 117 135 154 194 241 247 196 158 122 253 199 156 155 150 124 111 259 215 209 288 295 289 287 294 296 298 296 301 303 300 300 297 295 294 295 295 295 297 297 298 298 295 294
131 147 175 185 220 257 248 178 129 181 241 161 154 158 159 175 195 210 275 311 307 305 299 300 303 298 291 295 301 296 295 292 290 292 294 295 293 291 293 294 295 297 297 295
171 173 187 171 206 250 201 144 182 200 130 134 148 162 175 199 221 266 314 313 317 313 307 305 301 295 294 293 293 291 291 290 292 294 295 295 293 292 298 297 298 296 296 298
200 191 185 192 211 251 174 182 162 134 136 153 159 172 169 185 219 281 300 300 297 293 289 286 286 290 293 288 281 284 290 294 297 297 297 297 297 293 289 292 297 300 297 297
230 155 157 225 255 237 152 128 126 130 140 149 147 148 152 176 218 263 275 279 284 283 283 284 290 290 293 292 285 278 287 293 294 296 299 299 300 300 295 288 290 294 297 296
200 162 174 226 232 143 217 193 159 130 114 112 111 128 154 177 227 246 261 273 275 280 282 281 281 284 287 291 290 287 288 292 293 295 296 298 296 296 299 295 288 292 284 286
191 177 178 212 201 182 203 192 163 147 152 155 148 155 178 195 229 255 262 266 271 276 280 283 283 282 286 289 289 289 286 285 289 297 299 299 299 298 298 299 299 293 294 298